Temp
66 64 69 55 53 54 47 40 44 48 57 67 70 73 75 76 76 76 75 76 78 77 78 78 78 77 77 75 75 75 75 73
68 66 65 60 64 53 46 42 39 46 49 55 66 70 73 75 76 76 76 78 78 77 78 79 80 80 79 78 76 76 76 74
60 59 60 57 52 49 49 46 44 43 49 59 66 69 70 72 75 76 78 77 78 79 79 80 81 80 79 78 77 77 77 75
59 61 63 62 58 53 48 46 42 44 51 65 66 66 67 70 72 75 80 79 79 79 78 77 79 80 78 78 77 79 77 76
54 55 57 54 55 50 48 45 43 46 52 64 64 64 67 70 73 74 75 75 77 78 76 77 77 75 76 76 78 78 77 78
48 51 54 53 57 56 51 47 45 49 55 63 63 62 65 66 71 72 75 74 74 76 77 76 77 74 74 74 76 76 77 76
53 57 58 57 59 59 55 54 53 56 55 61 62 62 64 66 69 73 74 76 74 74 72 73 73 72 73 75 75 76 75 75
50 57 56 56 60 61 59 58 58 57 58 63 64 63 64 68 68 72 73 75 77 76 74 74 76 73 74 74 75 76 75 75
46 51 53 51 56 59 59 59 61 56 62 62 62 65 65 69 68 68 72 74 75 76 80 78 77 73 73 73 74 75 74 74
46 45 40 55 61 64 62 62 61 60 62 64 62 65 68 68 66 68 72 73 73 78 77 76 74 74 72 73 74 74 73 74
43 42 48 57 61 61 59 60 62 60 62 64 65 65 64 71 70 69 70 72 74 76 76 74 75 74 74 74 73 73 73 73
40 40 40 53 62 64 62 52 64 62 61 61 62 56 63 68 70 69 71 72 73 76 75 74 73 75 75 73 73 73 73 74
42 42 49 58 63 63 49 53 61 63 62 61 57 60 66 68 68 68 69 70 72 75 75 76 75 77 74 74 74 76 75 75
41 41 43 62 61 56 59 59 62 62 62 61 62 64 65 65 65 67 67 68 70 70 72 74 76 77 73 73 75 75 74 74
48 48 57 58 62 63 61 59 60 60 62 62 61 62 63 62 64 65 65 65 67 70 70 70 72 75 74 74 74 74 74 73
51 55 56 58 60 61 62 60 62 62 62 62 60 62 62 62 63 63 64 65 66 69 68 67 68 69 71 74 75 74 74 73
48 54 57 60 60 61 62 63 63 63 63 62 62 61 62 62 61 63 63 64 64 68 68 67 69 68 68 68 71 73 72 71
49 56 56 57 60 64 61 62 63 62 62 63 63 61 62 61 61 61 63 64 63 65 67 67 68 67 67 67 68 69 68 68
56 58 56 59 61 64 62 63 64 64 64 62 63 61 61 61 62 62 62 63 62 63 67 67 67 67 67 66 67 67 67 67
MSLP
1005.44 1005.14 1005.65 1007.56 1008.48 1009.14 1010.77 1012.08 1011.64 1009.91 1007.80 1005.00 1003.37 1002.57 1002.14 1001.83 1001.71 1002.02 1002.11 1002.57 1002.78 1003.19 1003.85 1004.59 1005.54 1006.10 1006.46 1007.36 1008.14 1008.79 1009.24 1010.14
1005.53 1005.27 1005.85 1006.55 1007.58 1009.35 1010.77 1011.97 1011.84 1010.38 1008.57 1006.04 1004.04 1003.31 1002.58 1002.12 1001.70 1001.63 1001.96 1002.30 1002.48 1002.69 1003.32 1003.92 1004.50 1005.24 1006.01 1006.74 1007.23 1007.86 1008.68 1009.35
1006.01 1005.98 1006.13 1007.06 1007.65 1009.31 1010.55 1011.14 1011.32 1010.54 1008.78 1005.36 1004.29 1003.32 1003.24 1002.73 1002.01 1001.49 1001.65 1001.84 1001.86 1001.89 1002.37 1003.08 1003.87 1004.64 1005.28 1006.09 1006.96 1007.44 1007.85 1008.63
1006.60 1005.87 1005.86 1006.12 1007.11 1008.36 1010.12 1011.31 1011.23 1010.23 1007.40 1005.11 1004.88 1004.56 1003.95 1003.01 1001.88 1001.01 1000.94 1001.08 1001.38 1001.49 1001.82 1002.35 1003.24 1004.01 1004.50 1005.31 1006.06 1006.64 1007.13 1007.82
1007.22 1006.85 1006.28 1006.41 1006.94 1007.85 1008.78 1009.69 1010.53 1009.96 1007.36 1005.30 1004.94 1004.50 1004.00 1003.23 1001.96 1001.46 1000.93 1000.94 1000.92 1001.34 1001.73 1001.98 1002.36 1003.21 1003.92 1004.65 1005.14 1006.08 1006.84 1007.28
1008.59 1007.71 1007.16 1006.98 1007.10 1007.59 1008.45 1009.46 1009.87 1008.89 1007.36 1005.69 1005.57 1005.11 1004.31 1003.41 1002.32 1001.68 1001.75 1000.90 1001.01 1001.03 1001.04 1001.29 1001.94 1002.37 1003.11 1003.92 1004.62 1005.54 1006.44 1006.90
1008.46 1008.06 1007.53 1007.03 1006.94 1007.25 1007.77 1007.77 1008.16 1007.58 1007.48 1006.20 1005.65 1005.44 1004.73 1003.87 1002.84 1001.78 1001.11 1000.82 1000.62 1000.80 1000.59 1001.02 1001.44 1002.06 1002.56 1003.25 1004.01 1004.98 1005.86 1006.32
1009.14 1008.25 1007.90 1007.51 1006.89 1006.80 1006.89 1006.81 1006.86 1006.78 1006.52 1005.43 1005.21 1004.98 1004.71 1003.76 1002.98 1002.25 1001.48 1001.31 1000.46 1000.19 1000.67 1000.55 1001.14 1001.08 1001.98 1002.87 1003.61 1004.40 1004.92 1005.37
1010.10 1009.00 1008.41 1007.48 1006.34 1006.19 1006.09 1006.06 1006.01 1006.24 1005.86 1005.71 1005.51 1005.01 1004.62 1003.54 1003.07 1002.44 1001.86 1001.03 1000.33 1000.08 999.65 999.62 1000.10 1000.99 1001.51 1002.42 1003.24 1004.43 1004.92 1004.99
1010.87 1009.91 1008.86 1006.90 1005.93 1005.56 1005.68 1005.58 1005.57 1005.65 1005.69 1005.94 1005.93 1005.31 1004.51 1003.72 1003.24 1002.52 1001.65 1001.08 1000.39 999.97 1000.34 998.88 998.71 999.96 1001.55 1002.15 1002.93 1003.96 1004.57 1004.92
1011.39 1010.45 1008.79 1007.04 1006.23 1005.75 1005.75 1005.53 1005.41 1005.75 1006.05 1006.07 1005.57 1004.78 1003.88 1003.23 1002.89 1002.98 1001.94 1000.69 1000.09 999.96 999.69 999.84 999.16 999.76 1001.20 1001.45 1002.44 1003.43 1004.10 1004.58
1011.72 1010.65 1009.03 1006.90 1005.91 1005.62 1005.70 1005.41 1005.32 1005.80 1006.08 1006.18 1005.99 1005.79 1004.09 1003.50 1003.08 1001.93 1001.19 1000.48 999.79 999.86 999.23 999.48 1000.09 1000.54 1000.20 1001.00 1002.11 1002.78 1003.62 1003.86
1010.89 1010.08 1008.37 1006.39 1005.89 1005.98 1006.19 1006.09 1005.74 1005.80 1005.87 1005.98 1006.17 1005.49 1004.00 1004.11 1003.55 1002.54 1001.59 1000.25 999.36 999.16 998.79 999.09 999.76 999.38 999.99 1000.53 1001.50 1001.91 1002.83 1003.45
1010.59 1009.53 1007.86 1005.94 1006.27 1006.29 1005.55 1005.65 1005.61 1005.71 1005.63 1005.75 1005.43 1004.85 1004.35 1004.23 1003.94 1002.94 1001.78 1000.77 999.95 999.66 999.33 998.84 999.46 999.57 999.66 999.96 1000.68 1001.67 1002.68 1003.19
1009.04 1007.65 1006.13 1005.70 1005.37 1004.94 1005.18 1005.52 1005.50 1005.68 1005.52 1005.56 1005.41 1004.97 1004.46 1004.27 1003.96 1003.52 1002.51 1001.45 1000.47 999.94 1000.02 999.89 999.96 1000.36 999.67 999.65 1000.62 1001.71 1002.57 1002.97
1008.25 1006.61 1006.07 1005.59 1005.23 1005.10 1005.13 1005.13 1005.08 1005.14 1005.22 1005.31 1005.11 1004.68 1004.31 1004.23 1003.97 1003.90 1003.11 1002.04 1001.03 1000.58 1000.29 1000.50 1000.52 1000.91 1001.53 1001.56 1000.85 1001.47 1002.44 1003.06
1007.50 1006.62 1005.84 1005.27 1004.95 1004.86 1004.56 1004.60 1004.80 1004.82 1004.86 1004.90 1004.74 1004.40 1004.24 1003.97 1003.81 1003.96 1003.77 1002.67 1002.04 1001.56 1001.07 1000.85 1000.89 1001.61 1002.17 1003.23 1003.14 1002.40 1002.59 1003.57
1006.62 1005.70 1005.54 1005.22 1004.75 1004.53 1004.46 1004.35 1004.28 1004.41 1004.35 1004.36 1004.19 1003.86 1003.59 1003.46 1003.65 1003.82 1003.83 1003.22 1002.82 1002.06 1001.52 1001.15 1000.52 1000.85 1001.69 1002.82 1003.14 1003.81 1004.64 1004.88
1005.56 1005.11 1004.94 1004.70 1004.50 1004.11 1004.11 1003.83 1003.88 1003.97 1004.07 1003.87 1003.65 1003.53 1003.30 1002.90 1003.09 1003.26 1003.45 1003.31 1002.78 1001.87 1000.94 1000.01 1000.57 1000.50 1000.96 1003.47 1004.48 1005.45 1005.80 1006.13
Wind_Speed
4 2 9 3 3 4 8 4 3 4 9 12 4 6 6 8 4 5 8 10 13 10 12 12 13 15 17 15 13 13 16 11
6 2 4 5 7 4 3 5 4 5 6 8 11 7 6 8 9 6 5 7 8 11 12 11 13 13 12 12 15 12 13 12
2 4 8 1 0 6 5 5 7 3 8 9 11 8 6 10 9 8 10 9 10 11 13 13 11 12 12 12 12 12 13 12
13 3 2 2 6 7 7 4 2 3 9 2 7 10 7 13 13 8 10 12 9 9 10 14 14 13 13 12 13 13 11 11
10 7 3 2 2 6 5 4 5 6 8 2 8 10 8 11 12 9 5 7 8 8 9 11 13 11 11 11 12 10 10 11
6 6 4 3 1 4 5 4 5 7 6 11 10 11 14 13 11 9 9 6 7 7 11 10 10 12 11 10 10 11 12 12
5 5 3 2 4 4 6 5 6 6 8 8 9 9 10 11 9 9 9 9 8 9 9 8 9 8 9 10 12 12 12 12
4 3 3 5 7 7 5 4 5 4 8 7 7 7 6 13 6 7 8 9 9 8 7 8 9 12 10 10 11 13 13 12
5 2 7 6 7 8 4 2 5 5 7 3 9 15 10 14 13 9 7 10 10 10 13 12 15 9 12 12 11 11 9 9
5 2 6 6 4 6 6 5 6 3 5 3 7 12 17 12 6 10 11 8 9 9 9 8 7 10 9 11 12 10 8 8
4 5 4 2 5 5 7 9 6 5 1 4 9 10 6 3 9 13 16 16 11 6 6 5 6 11 11 12 12 11 10 9
3 4 7 8 3 2 3 8 5 4 3 4 5 6 9 8 17 23 20 13 12 6 4 6 6 10 12 13 12 12 10 10
4 4 7 8 4 2 4 7 4 3 6 5 5 7 11 13 15 17 16 14 7 5 6 6 7 11 11 13 13 12 9 7
3 3 7 6 4 6 7 3 4 5 8 8 9 13 14 10 9 14 10 12 10 4 3 4 6 9 12 14 10 10 9 8
10 9 4 5 6 5 3 4 5 4 6 7 8 11 13 10 5 9 5 6 9 6 8 9 8 4 9 9 11 10 9 8
1 5 7 5 6 6 5 8 7 6 7 6 11 11 12 8 3 7 7 4 5 8 11 12 12 13 12 4 10 11 8 7
5 7 7 7 4 7 7 6 5 6 7 5 7 10 10 7 4 5 7 3 4 7 10 12 13 14 13 12 9 4 6 5
7 9 5 7 4 5 7 5 5 6 4 5 4 7 7 6 5 4 7 3 3 3 9 10 15 16 17 16 7 8 5 3
8 5 7 7 6 6 6 5 6 5 6 5 4 3 8 8 8 5 5 3 5 1 2 10 11 15 16 11 9 6 5 5
Wind_Direction
237 151 130 173 157 186 104 15 61 256 294 307 344 333 345 334 329 239 190 184 190 183 183 174 178 186 187 184 190 189 195 188
286 74 47 163 161 75 7 167 219 293 285 239 301 309 301 276 263 233 226 216 196 179 180 179 180 189 187 185 190 190 189 189
79 210 191 25 217 48 117 124 163 197 266 219 247 257 267 282 261 227 215 215 209 197 176 183 173 177 181 185 183 189 189 181
220 231 165 141 176 149 128 219 123 158 270 269 299 316 309 289 281 247 203 204 213 202 182 166 177 182 183 180 178 194 186 182
343 5 12 144 165 91 97 78 186 137 263 65 1 324 325 283 286 276 256 239 204 177 194 195 173 176 180 176 181 171 174 183
196 226 186 138 109 126 128 109 174 226 280 314 329 327 328 304 297 289 274 236 227 212 205 183 188 174 171 168 163 157 171 179
224 243 304 268 215 202 188 186 158 235 204 263 281 297 296 288 292 288 254 262 221 224 201 195 169 167 166 162 157 160 174 176
285 249 227 253 248 246 238 186 250 246 266 217 291 280 281 302 305 296 301 285 259 208 216 197 209 173 166 160 161 165 177 181
264 318 313 310 216 200 199 189 170 187 234 352 317 319 324 308 312 297 282 283 270 238 210 197 186 169 169 160 147 171 192 171
222 26 248 246 280 222 194 209 213 256 250 312 279 290 295 283 267 304 309 267 260 254 282 176 139 140 146 148 151 166 181 184
179 197 284 239 210 153 179 253 205 231 32 309 317 324 296 231 351 320 300 290 267 216 216 307 154 146 165 144 151 159 178 182
137 188 220 237 161 92 115 268 250 138 269 316 354 337 282 319 338 318 310 288 292 207 149 155 165 168 142 147 155 167 182 192
172 216 282 249 201 106 142 263 201 200 226 248 232 210 274 324 315 309 296 295 318 264 171 175 176 157 152 151 173 177 172 173
101 143 273 174 114 171 218 210 213 237 238 241 251 278 287 304 313 321 340 353 352 17 43 124 180 182 159 164 160 149 164 158
176 207 237 205 212 231 168 240 254 245 248 238 261 270 287 301 323 309 344 4 358 28 69 52 40 330 182 156 142 147 152 151
110 257 240 242 256 253 254 236 251 247 260 249 266 277 281 285 279 293 294 36 40 42 58 47 44 40 20 340 145 144 156 159
264 284 286 277 249 260 276 248 269 264 262 256 278 281 273 257 230 264 294 11 18 86 96 85 71 58 47 8 324 72 95 109
227 229 194 248 270 261 254 256 275 259 282 279 255 278 262 227 220 222 258 266 304 127 119 113 100 83 60 31 342 25 64 37
243 225 210 252 276 262 256 253 265 263 276 264 280 267 269 231 213 218 249 243 254 13 97 102 94 95 87 69 9 36 52 58